Home > Weather > Everett > Past weeks

Flag for USA Past Weather in Everett, Washington, USA — Yesterday and Last 2 Weeks

Now
64 °F

Sunny.


Feels Like: 64 °F
Forecast: 56 / 77 °F
Wind: 8 mph from West

Location: Snohomish County Airport

Current Time: Jun 28, 2016 at 1:30:04 PM

Latest Report: Jun 28, 2016 at 12:53 PM


Visibility: 10 mi

Pressure: 30.20 "Hg

Humidity: 70%

Dew Point: 54 °F

Location of EverettLocation

Past Weather in Everett — Graph

°F

Everett Temperature Yesterday

Maximum temperature yesterday: 77 °F (at 2:53 PM)
Minimum temperature yesterday: 58 °F (at 2:53 AM)
Average temperature yesterday: 66 °F

High & Low Weather Summary for the Past Weeks

 TemperatureHumidityPressure
High77 °F (Jun 27, 2:53 PM)93% (Jun 18, 1:53 AM)30.42 "Hg (Jun 18, 1:53 AM)
Low46 °F (Jun 14, 3:53 AM)37% (Jun 15, 4:53 PM)29.89 "Hg (Jun 14, 5:53 AM)
Average58 °F72%30.13 "Hg
* Reported Jun 13 12:00 PM — Jun 28 11:53 AM, Everett, Weather by CustomWeather, © 2016

Note: Actual official high and low records may vary slightly from our data, if they occured in-between our weather recording intervals... More about our weather records

Advertising

Everett Weather History for the Previous 24 Hours

Scroll right to see more
 ConditionsComfort  
Time TempWeatherWind HumidityBarometerVisibility
11:53 AM
Tue, Jun 28
62 °FSunny.8 mph73%30.22 "Hg10 mi
10:53 AM59 °FPassing clouds.10 mph81%30.22 "Hg10 mi
9:53 AM59 °FPartly sunny.8 mph81%30.22 "Hg10 mi
8:53 AM57 °FLow clouds.5 mph87%30.22 "Hg9 mi
7:53 AM56 °FMore clouds than sun.No wind90%30.22 "Hg8 mi
6:53 AM55 °FFog.No wind93%30.22 "Hg6 mi
6:03 AM54 °FPassing clouds.No wind93%30.21 "Hg7 mi
5:53 AM55 °FClear.No wind90%30.20 "Hg7 mi
4:53 AM55 °FClear.No wind87%30.19 "Hg10 mi
4:01 AM55 °FPassing clouds.3 mph90%30.20 "Hg10 mi
3:53 AM54 °FPassing clouds.3 mph90%30.19 "Hg9 mi
2:53 AM54 °FPassing clouds.No wind90%30.19 "Hg9 mi
1:53 AM55 °FClear.3 mph90%30.18 "Hg10 mi
12:53 AM56 °FClear.7 mph87%30.18 "Hg10 mi
11:53 PM
Mon, Jun 27
58 °FClear.7 mph84%30.16 "Hg10 mi
10:53 PM61 °FClear.8 mph75%30.16 "Hg10 mi
9:53 PM62 °FSunny.8 mph73%30.15 "Hg10 mi
8:53 PM62 °FSunny.9 mph73%30.14 "Hg10 mi
7:53 PM65 °FSunny.9 mph68%30.14 "Hg10 mi
6:53 PM70 °FSunny.7 mph57%30.14 "Hg10 mi
5:53 PM73 °FSunny.6 mph53%30.14 "Hg10 mi
4:53 PM77 °FSunny.8 mph44%30.14 "Hg10 mi
3:53 PM77 °FSunny.7 mph44%30.14 "Hg10 mi
2:53 PM77 °FPassing clouds.6 mph44%30.14 "Hg10 mi
1:53 PM76 °FScattered clouds.7 mph47%30.15 "Hg10 mi
Weather by CustomWeather, © 2016

See weather overviewHow to use our weather pages